This is the latest recevied weather packets stored in our database for station/object N3TJJ-11. If no packets are shown the sender has not sent any weather packets the latest 1 day(s).
| Time | Temp. | Humidity | Pressure | Rain* | Wind** | Luminosity | Snow |
|---|---|---|---|---|---|---|---|
| 1777975904 | 12.78° C | 77% | 1008.5 hPa | 0 mm | 2.68 m/s, 238° | - | - |
| 1777975426 | 12.78° C | 77% | 1008.4 hPa | 0 mm | 2.68 m/s, 232° | - | - |
| 1777975184 | 12.78° C | 77% | 1008.3 hPa | 0 mm | 2.24 m/s, 232° | - | - |
| 1777974825 | 12.78° C | 76% | 1008.4 hPa | 0 mm | 2.68 m/s, 239° | - | - |
| 1777974464 | 12.78° C | 76% | 1008.4 hPa | 0 mm | 2.68 m/s, 224° | - | - |
| 1777974233 | 12.78° C | 76% | 1008.3 hPa | 0 mm | 2.68 m/s, 226° | - | - |
| 1777973744 | 12.78° C | 76% | 1008.4 hPa | 0 mm | 3.13 m/s, 238° | - | - |
| 1777973625 | 13.33° C | 76% | 1008.4 hPa | 0 mm | 3.13 m/s, 232° | - | - |
| 1777973024 | 13.33° C | 76% | 1008.3 hPa | 0 mm | 3.13 m/s, 202° | - | - |
| 1777972426 | 12.78° C | 77% | 1008.3 hPa | 0 mm | 3.13 m/s, 227° | - | - |
| 1777972304 | 12.78° C | 77% | 1008.3 hPa | 0 mm | 2.68 m/s, 236° | - | - |
| 1777971825 | 13.33° C | 77% | 1008.3 hPa | 0 mm | 2.24 m/s, 234° | - | - |
| 1777971584 | 13.33° C | 77% | 1008.4 hPa | 0 mm | 2.24 m/s, 246° | - | - |
| 1777971231 | 13.33° C | 76% | 1008.4 hPa | 0 mm | 2.24 m/s, 207° | - | - |
| 1777970864 | 13.33° C | 76% | 1008.3 hPa | 0 mm | 2.24 m/s, 240° | - | - |
| 1777970625 | 13.33° C | 76% | 1008.4 hPa | 0 mm | 2.24 m/s, 252° | - | - |
| 1777970144 | 13.33° C | 75% | 1008.3 hPa | 0 mm | 1.79 m/s, 222° | - | - |
| 1777970025 | 13.33° C | 75% | 1008.3 hPa | 0 mm | 1.79 m/s, 209° | - | - |
| 1777969424 | 13.89° C | 74% | 1008.3 hPa | 0 mm | 2.24 m/s, 236° | - | - |
| 1777968828 | 13.89° C | 72% | 1008.3 hPa | 0 mm | 2.24 m/s, 229° | - | - |
| 1777968704 | 13.89° C | 72% | 1008.3 hPa | 0 mm | 2.24 m/s, 225° | - | - |
| 1777968226 | 13.89° C | 71% | 1008.3 hPa | 0 mm | 2.24 m/s, 244° | - | - |
| 1777967984 | 14.44° C | 70% | 1008.3 hPa | 0 mm | 2.24 m/s, 232° | - | - |
| 1777967626 | 14.44° C | 70% | 1008.3 hPa | 0 mm | 2.68 m/s, 187° | - | - |
| 1777967264 | 14.44° C | 69% | 1008.2 hPa | 0 mm | 2.24 m/s, 197° | - | - |
* Rain latest hour (hover to see other rain measurements)
** Current wind speed in m/s (hover to see current wind gust speed)